Hourly Data Report for September 07, 2017

All times are specified in Local Standard Time (LST). Add 1 hour to adjust for Daylight Saving Time where and when it is observed.

PORT ALBERNI (AUT)
BRITISH COLUMBIA

49°18'59.700" N
124°55'36.600" W
76.20 m
1036B06
71475
WQC

Related Data

No related data is available for this station

Download Data

Hourly Data (September 2017)
Hourly Data Report for September 7, 2017
Temp Definition
°C
Dew Point Temp Definition
°C
Rel Hum Definition
%
Wind Dir Definition
10's deg

Wind Spd Definition
km/h
Visibility Definition
km
Stn Press Definition
kPa
Hmdx Definition


Wind Chill Definition


Weather Definition


TIME
00:00 19.5 14.9 75 9 12   100.54     LegendNANA
01:00 18.7 14.9 79 13 8   100.51     LegendNANA
02:00 18.5 15.0 80 11 6   100.56     LegendNANA
03:00 17.5 15.3 87 12 4   100.44     LegendNANA
04:00 17.0 15.6 91 7 4   100.40     LegendNANA
05:00 16.8 15.2 91 26 3   100.35     LegendNANA
06:00 16.4 15.4 94 12 5   100.48     LegendNANA
07:00 16.9 16.1 95 3 2   100.43     LegendNANA
08:00 18.2 16.4 90 11 4   100.44     LegendNANA
09:00 18.7 16.4 87 15 2   100.51     LegendNANA
10:00 19.6 16.5 82 12 10   100.43     LegendNANA
11:00 20.4 16.4 78 35 4   100.41 25   LegendNANA
12:00 20.9 16.0 74 23 3   100.37 26   LegendNANA
13:00 21.1 16.5 75 35 2   100.36 26   LegendNANA
14:00 21.2 16.2 73 19 3   100.35 26   LegendNANA
15:00 21.4 16.4 73 17 5   100.35 26   LegendNANA
16:00 20.4 16.7 79 18 5   100.35 25   LegendNANA
17:00 19.5 17.1 86 12 9   100.30     LegendNANA
18:00 18.3 17.0 92 17 6   100.29     LegendNANA
19:00 17.5 16.8 96 24 4   100.25     LegendNANA
20:00 16.9 16.4 97 27 3   100.33     LegendNANA
21:00 16.2 15.7 97 11 2   100.37     LegendNANA
22:00 16.8 16.5 98 9 5   100.38     LegendNANA
23:00 16.9 16.5 98 20 2   100.37     LegendNANA

Notes on Data Quality.

Legend

  • E = Estimated
  • M = Missing
  • NA = Not Available
  • ‡ = Partner data that is not subject to review by the National Climate Archives
Date modified: